Wind_Speed
34 32 28 27 25 23 21 19 19 19 16 16 12 12 14 15 17 18 17 19 22 24 25 27 27 28 27 24 25 19 13 12 16 18 19 19 19 18 21 19 15 22 21 22 27 29 31
36 33 30 29 26 24 23 21 20 20 18 16 13 13 13 11 14 19 18 20 22 26 28 29 29 28 26 23 21 17 15 8 12 13 16 17 14 12 19 20 19 21 24 24 25 27 27
38 36 33 30 27 26 24 22 21 20 19 17 15 13 13 13 16 19 20 20 23 28 30 28 28 26 24 19 18 15 11 5 10 12 11 14 12 16 17 18 18 24 26 24 24 23 26
41 38 35 32 29 28 26 23 23 21 20 19 16 14 14 15 18 19 21 21 25 30 30 30 26 28 22 16 8 7 4 6 4 8 13 13 16 20 21 21 24 25 27 32 20 8 10
43 41 37 33 31 29 27 25 24 22 22 20 17 16 16 17 20 21 22 25 27 32 35 27 26 20 14 10 13 4 7 9 11 6 9 10 15 19 21 25 28 24 24 20 22 14 22
45 42 40 36 33 31 29 27 26 24 23 21 19 18 18 18 21 23 24 28 31 34 28 28 18 23 16 15 18 14 15 18 13 14 9 12 15 17 16 15 22 17 17 25 29 31 33
46 45 41 37 35 33 30 29 27 25 24 23 21 20 19 20 22 26 28 32 34 34 34 26 19 22 21 18 18 9 6 2 4 3 5 11 14 14 11 13 19 24 29 34 34 33 36
47 46 44 39 37 35 32 30 28 28 25 24 23 22 20 20 23 26 30 33 36 39 44 20 14 17 12 12 8 9 7 6 4 7 4 5 15 4 14 20 23 25 32 37 35 31 36
49 47 45 41 37 37 33 31 28 30 25 25 25 23 21 21 21 26 28 32 36 32 34 15 14 15 9 2 9 11 6 2 4 4 5 12 21 20 20 24 20 20 26 27 31 33 35
51 48 46 43 38 39 34 31 29 30 26 26 26 24 22 22 23 23 26 29 34 26 18 8 13 11 13 4 2 3 1 4 6 10 15 11 21 18 17 21 22 29 28 31 36 37 25
53 49 49 44 39 40 36 33 30 30 26 28 27 27 23 22 25 23 23 25 28 20 5 8 10 8 12 6 3 4 6 14 15 16 18 24 34 27 23 26 24 31 21 26 30 32 30
53 52 51 45 41 40 37 33 34 29 28 27 29 29 25 24 24 23 24 26 21 6 6 7 6 9 10 4 6 8 13 15 20 23 25 32 39 30 30 27 29 30 29 29 31 30 18
56 54 50 46 43 40 37 35 33 30 30 29 31 29 26 26 23 22 24 21 9 6 6 3 6 8 12 14 15 15 14 18 23 32 35 39 39 27 26 32 27 25 24 9 9 6 8
56 55 50 47 43 40 37 38 32 32 31 31 32 30 29 24 22 20 23 21 6 8 14 23 27 30 31 29 33 35 33 35 36 37 34 30 29 16 18 23 21 18 18 12 6 4 7
54 54 52 48 41 41 39 37 34 33 33 32 31 30 32 21 22 19 25 23 17 15 16 26 33 30 21 13 13 21 29 34 35 32 28 19 18 17 21 20 17 12 17 19 17 19 8
56 55 53 47 42 42 39 37 36 35 35 33 29 36 33 29 24 22 30 35 32 31 29 25 26 23 30 30 30 21 15 15 17 21 24 32 31 26 32 30 23 21 19 13 10 4 8
67 65 58 54 45 43 41 40 39 37 35 31 32 35 35 32 27 31 37 39 40 36 34 33 34 34 38 34 33 29 25 30 30 31 28 29 31 31 22 24 31 27 24 21 19 17 4
54 72 78 59 54 48 44 43 40 38 37 35 34 37 40 36 34 41 39 38 40 39 35 40 39 37 41 40 36 31 35 34 38 35 27 30 24 25 31 32 26 27 24 19 10 6 9
56 60 61 54 52 51 47 46 44 43 42 36 39 42 48 40 43 39 43 40 40 40 41 43 45 44 41 42 35 36 39 39 36 34 19 25 16 13 11 8 15 15 15 14 10 13 16
52 45 57 52 53 55 54 53 47 47 45 44 44 47 53 47 53 47 44 45 44 42 42 44 46 44 45 46 43 37 39 31 23 28 32 29 32 29 22 13 15 18 22 21 19 12 22
56 57 46 43 44 49 59 52 53 50 48 45 51 52 54 38 48 45 37 39 41 40 39 43 44 46 42 41 37 38 39 39 36 32 31 31 31 29 30 30 29 30 30 30 30 35 24
55 53 51 52 59 38 53 45 52 48 43 42 43 43 48 50 48 40 37 42 43 39 36 44 42 38 35 35 33 34 28 26 28 25 29 29 23 22 29 23 23 33 35 31 33 32 34
51 50 45 35 35 39 37 37 45 40 44 47 46 34 36 33 41 40 43 40 44 39 41 39 37 34 31 27 26 28 28 28 21 17 16 21 14 11 20 18 25 22 24 28 29 29 29
60 53 41 40 46 37 46 35 45 41 33 39 36 33 29 36 36 33 39 42 40 31 28 30 25 20 23 22 25 27 29 28 25 25 20 25 30 23 23 22 12 19 14 11 17 19 19
51 44 42 35 37 39 41 41 35 44 52 40 35 31 29 31 32 35 38 33 27 22 21 22 21 19 18 17 16 15 17 23 22 17 16 19 25 21 20 23 25 30 28 26 17 15 15
45 30 27 34 33 33 35 40 41 41 40 33 28 24 28 31 33 29 24 23 21 19 18 18 16 15 15 14 14 7 5 9 6 4 6 7 13 23 25 6 5 16 18 11 12 21 19
45 38 28 24 23 26 28 32 33 31 27 22 24 26 30 29 26 27 26 21 19 16 15 12 12 13 15 12 10 7 8 11 8 8 13 18 17 14 20 20 18 20 18 12 5 5 17
52 41 32 28 28 31 29 24 25 30 29 24 27 29 29 29 21 17 15 11 11 12 15 11 12 12 12 10 7 7 6 7 10 12 14 11 10 7 7 7 8 12 17 14 21 22 26
46 29 30 34 31 20 22 22 25 25 29 31 26 26 24 19 12 15 11 10 10 10 8 11 13 13 8 7 7 6 8 9 14 13 13 9 7 11 13 17 23 24 22 23 27 28 26
Wind_Direction
233 236 237 240 244 251 253 257 264 270 275 281 285 296 308 318 322 322 329 332 329 322 319 316 314 312 306 307 304 300 288 265 253 243 238 249 255 257 258 262 240 237 251 250 254 261 267
233 235 237 240 244 248 254 256 260 268 270 271 281 293 301 312 317 319 328 333 333 329 326 321 314 309 310 315 306 303 288 274 266 246 240 241 254 252 253 249 247 262 263 263 263 262 269
233 234 237 240 242 246 251 254 259 263 267 269 280 291 295 308 311 317 324 331 335 331 333 333 326 317 317 314 302 294 306 281 246 245 231 226 204 213 237 257 262 263 271 272 271 283 280
235 236 235 238 240 244 246 250 256 260 260 268 278 284 290 304 309 314 323 329 332 329 331 334 338 323 323 315 303 298 44 11 271 260 239 230 229 230 249 261 266 271 272 278 305 286 294
235 236 236 236 239 241 245 247 252 256 258 263 274 278 288 302 309 314 321 325 326 329 327 332 330 327 318 301 296 269 300 291 291 262 246 217 233 248 259 263 272 274 276 293 302 289 308
235 234 235 235 236 238 240 244 248 252 254 259 265 272 284 298 309 312 318 323 327 324 334 338 329 319 298 289 289 304 303 290 258 247 248 261 261 257 262 256 267 286 289 293 291 296 302
232 234 233 235 235 236 237 242 248 250 254 257 260 269 282 296 307 311 318 317 324 334 337 335 326 314 294 273 272 294 290 113 107 181 264 250 260 275 318 303 301 295 290 289 299 300 295
228 232 232 231 235 235 235 240 245 250 251 255 258 266 279 292 305 311 319 327 338 335 333 349 357 355 326 272 255 168 170 166 116 90 19 298 290 325 313 302 298 295 288 286 290 288 290
228 230 232 229 233 236 234 239 242 249 249 253 254 262 275 289 300 307 318 327 331 337 332 342 356 16 15 34 165 163 160 130 12 12 311 298 327 302 289 283 286 283 280 294 295 301 298
227 229 232 230 231 236 235 237 242 247 249 252 253 262 272 285 294 303 319 331 335 338 332 336 352 9 25 33 178 191 183 265 291 323 326 292 323 313 288 272 275 289 281 287 289 296 299
225 228 232 229 230 234 236 236 240 244 247 250 252 258 267 281 290 298 313 327 337 343 336 337 335 342 350 336 287 330 295 291 296 308 305 295 311 309 290 285 282 285 295 290 291 287 287
224 226 229 230 230 232 234 234 239 240 243 245 250 257 265 273 285 296 308 328 334 344 271 328 294 322 338 358 270 304 307 295 297 298 292 295 301 289 290 280 277 287 288 285 280 279 272
222 226 226 228 228 230 231 233 235 239 239 241 246 253 263 274 282 298 314 324 320 203 291 271 247 277 285 299 286 277 264 259 273 292 292 297 298 297 277 273 274 275 275 291 281 232 245
222 223 224 227 225 229 229 230 231 236 237 240 246 253 258 269 279 303 315 295 227 243 259 278 279 286 281 282 278 281 277 272 271 286 287 288 297 281 258 257 264 267 264 233 252 225 279
219 223 223 223 222 226 226 230 228 231 234 238 247 259 263 266 275 291 293 260 260 263 279 288 296 293 294 283 275 282 285 281 280 277 265 282 270 266 246 260 262 264 255 260 259 259 274
219 221 227 223 222 224 224 227 227 227 231 237 252 260 260 263 271 272 272 261 260 278 279 280 274 280 286 288 290 299 289 278 270 272 274 274 272 262 256 266 267 263 261 260 239 253 243
223 224 231 229 231 226 224 223 224 225 230 237 246 256 262 264 258 259 253 263 270 278 276 276 278 269 276 280 273 274 270 280 276 279 278 258 252 261 253 262 271 264 248 237 244 234 240
230 221 226 219 224 223 221 221 222 225 230 233 244 249 260 255 248 251 258 268 273 279 278 278 281 285 279 279 271 264 261 265 282 284 266 250 261 266 273 273 268 262 249 242 232 246 248
216 214 213 217 221 225 225 222 221 224 228 233 240 250 253 250 245 248 263 269 274 276 272 277 277 274 282 273 261 271 272 277 276 269 254 252 252 282 292 278 241 234 222 228 277 269 257
222 221 219 224 221 221 221 222 224 232 228 230 242 245 249 250 250 255 267 263 272 271 275 271 269 273 271 271 270 266 273 277 273 252 254 255 249 242 250 257 261 257 239 258 291 268 280
223 228 214 229 225 228 222 224 224 224 235 230 231 239 245 245 253 260 260 265 265 269 279 275 273 275 274 269 272 270 272 270 272 261 261 247 248 250 256 260 266 272 282 286 279 276 265
217 219 225 231 220 232 228 224 228 229 233 249 229 243 250 252 250 253 265 269 265 279 273 270 269 280 278 271 276 274 273 267 271 264 241 238 257 267 275 274 278 283 288 282 278 276 275
209 211 223 238 226 232 218 226 228 239 227 231 245 243 254 256 253 260 268 273 277 276 273 269 272 271 271 271 264 261 265 265 247 243 238 248 251 282 279 287 291 275 276 282 280 279 279
209 221 226 231 235 239 227 232 230 226 236 244 253 269 259 259 259 265 267 273 272 272 261 268 267 260 261 259 261 262 258 251 244 246 247 271 287 285 278 293 268 280 294 276 284 281 278
212 220 209 223 229 221 218 225 227 235 239 240 255 259 257 266 263 266 267 265 264 261 248 249 257 261 260 257 253 264 281 289 289 291 278 274 269 259 259 263 273 282 287 278 283 281 284
195 193 208 209 213 212 222 235 238 238 240 233 236 255 260 257 255 256 258 259 255 244 241 243 240 235 237 262 289 290 274 281 269 247 245 310 311 262 261 256 259 278 280 264 274 285 294
197 188 191 201 203 214 221 210 218 214 226 235 257 255 250 251 259 264 261 255 251 234 225 228 249 264 268 262 262 262 255 262 265 267 296 299 301 283 271 258 266 262 265 328 306 316 313
195 207 214 203 206 197 207 211 218 217 221 248 252 253 256 254 254 250 248 235 229 236 246 250 227 240 248 244 254 252 237 255 266 272 302 301 300 293 295 289 294 337 323 297 304 300 301
206 189 191 202 218 207 207 209 217 227 238 238 240 244 244 236 220 203 216 217 223 233 263 245 251 266 242 232 244 245 238 252 280 289 286 259 295 296 285 273 287 296 298 294 294 296 300
Height
3135 3138 3141 3143 3145 3147 3147 3147 3148 3149 3148 3149 3148 3147 3147 3146 3146 3145 3141 3139 3137 3133 3129 3126 3123 3121 3119 3120 3115 3115 3113 3113 3113 3114 3116 3117 3118 3119 3118 3119 3121 3117 3118 3118 3117 3117 3117
3129 3132 3135 3138 3140 3141 3143 3143 3143 3146 3145 3145 3144 3144 3143 3142 3141 3142 3138 3135 3133 3130 3126 3122 3119 3115 3113 3113 3109 3109 3107 3108 3108 3109 3111 3113 3115 3116 3115 3115 3116 3115 3113 3111 3111 3111 3111
3121 3125 3129 3132 3134 3136 3138 3138 3140 3140 3142 3143 3142 3141 3140 3139 3138 3138 3135 3131 3129 3126 3123 3119 3114 3109 3109 3108 3104 3103 3103 3103 3104 3105 3107 3109 3110 3111 3111 3110 3111 3109 3107 3106 3106 3107 3105
3114 3119 3121 3126 3128 3131 3132 3133 3135 3136 3137 3139 3139 3138 3137 3135 3135 3134 3132 3128 3126 3122 3118 3115 3110 3105 3104 3102 3101 3101 3100 3101 3101 3103 3105 3107 3107 3106 3106 3107 3106 3106 3105 3100 3101 3101 3101
3106 3112 3115 3118 3122 3125 3127 3128 3129 3130 3133 3134 3135 3134 3134 3132 3131 3130 3128 3125 3121 3117 3114 3110 3106 3101 3099 3099 3099 3100 3100 3100 3099 3100 3101 3102 3103 3103 3104 3104 3103 3102 3098 3098 3093 3096 3096
3098 3104 3108 3111 3115 3118 3120 3122 3123 3124 3127 3129 3130 3130 3130 3128 3126 3125 3122 3120 3117 3112 3110 3105 3100 3100 3097 3095 3093 3096 3095 3094 3095 3097 3100 3101 3100 3100 3100 3101 3099 3098 3097 3094 3092 3088 3089
3089 3096 3100 3103 3108 3111 3113 3116 3118 3119 3121 3123 3125 3125 3125 3125 3122 3120 3118 3114 3113 3108 3108 3101 3096 3092 3089 3089 3090 3092 3093 3092 3093 3095 3097 3097 3098 3096 3098 3098 3096 3094 3092 3089 3086 3087 3083
3078 3087 3092 3095 3101 3104 3106 3109 3112 3114 3115 3118 3120 3121 3121 3120 3119 3116 3113 3108 3108 3104 3090 3094 3092 3088 3084 3084 3087 3089 3092 3094 3094 3094 3096 3098 3096 3096 3095 3094 3093 3091 3088 3083 3082 3082 3079
3068 3077 3083 3087 3092 3098 3099 3103 3105 3109 3108 3112 3115 3116 3116 3116 3115 3114 3110 3107 3105 3103 3098 3092 3091 3089 3086 3086 3086 3088 3091 3093 3093 3093 3094 3093 3093 3092 3092 3090 3088 3087 3084 3080 3077 3073 3071
3059 3067 3074 3079 3083 3091 3093 3096 3099 3103 3103 3107 3110 3111 3111 3112 3113 3111 3108 3105 3102 3101 3097 3093 3092 3090 3089 3089 3089 3090 3091 3093 3092 3092 3091 3090 3089 3090 3088 3085 3084 3079 3080 3076 3072 3070 3065
3049 3056 3066 3070 3074 3082 3086 3089 3092 3096 3097 3101 3104 3106 3106 3106 3107 3107 3106 3103 3102 3102 3099 3094 3092 3091 3091 3091 3091 3090 3090 3089 3088 3087 3088 3086 3082 3083 3081 3079 3079 3073 3074 3071 3067 3065 3060
3038 3047 3056 3061 3066 3073 3078 3081 3087 3087 3091 3094 3098 3100 3100 3101 3102 3103 3100 3100 3101 3104 3096 3093 3092 3091 3089 3088 3089 3088 3087 3086 3084 3081 3080 3079 3079 3077 3072 3072 3071 3069 3068 3065 3060 3059 3052
3028 3039 3045 3051 3058 3064 3068 3074 3079 3081 3085 3086 3090 3092 3094 3096 3098 3097 3094 3096 3100 3099 3097 3093 3090 3089 3088 3086 3085 3085 3083 3082 3081 3076 3074 3072 3069 3068 3066 3064 3065 3064 3063 3059 3054 3052 3045
3019 3028 3035 3042 3048 3054 3060 3066 3070 3075 3078 3080 3083 3086 3088 3090 3093 3091 3090 3090 3092 3092 3092 3092 3088 3087 3086 3085 3081 3079 3077 3074 3076 3074 3067 3063 3057 3060 3058 3057 3057 3057 3059 3058 3053 3048 3039
3007 3019 3025 3031 3038 3045 3052 3057 3063 3067 3071 3072 3076 3079 3082 3085 3088 3087 3086 3081 3083 3085 3083 3083 3081 3078 3075 3076 3076 3074 3071 3067 3067 3068 3070 3062 3053 3052 3051 3050 3054 3051 3052 3049 3046 3040 3039
2998 3008 3014 3022 3029 3037 3042 3049 3056 3060 3063 3067 3069 3071 3074 3079 3082 3081 3076 3071 3072 3078 3078 3077 3077 3076 3072 3074 3073 3070 3064 3061 3061 3063 3064 3057 3050 3047 3047 3044 3044 3044 3045 3046 3044 3038 3029
2985 2994 3003 3013 3021 3028 3034 3041 3048 3052 3056 3060 3063 3062 3063 3071 3074 3072 3065 3064 3063 3068 3073 3071 3069 3067 3065 3066 3064 3063 3058 3056 3054 3053 3055 3052 3048 3040 3040 3039 3039 3038 3035 3035 3034 3029 3021
2970 2980 2992 3003 3012 3020 3026 3033 3038 3044 3050 3053 3055 3054 3056 3061 3064 3056 3056 3059 3060 3058 3062 3061 3058 3058 3058 3058 3052 3051 3046 3047 3044 3043 3044 3044 3039 3031 3031 3033 3034 3030 3029 3029 3026 3020 3014
2962 2972 2980 2989 3000 3009 3016 3024 3028 3034 3039 3044 3045 3047 3048 3048 3047 3046 3048 3052 3052 3051 3049 3049 3047 3046 3046 3047 3048 3040 3037 3035 3038 3036 3034 3034 3031 3026 3023 3024 3022 3019 3019 3020 3020 3017 3013
2954 2961 2973 2980 2986 2997 3006 3013 3017 3026 3032 3035 3035 3038 3035 3034 3034 3040 3043 3040 3042 3042 3041 3040 3038 3038 3037 3036 3034 3031 3029 3029 3029 3029 3029 3026 3020 3018 3018 3018 3018 3016 3015 3014 3014 3012 3007
2946 2955 2962 2971 2978 2988 2991 3000 3007 3016 3020 3023 3020 3020 3024 3018 3022 3031 3033 3031 3031 3031 3032 3029 3027 3027 3030 3026 3025 3024 3023 3023 3022 3022 3021 3020 3012 3012 3010 3011 3010 3008 3008 3009 3008 3004 3002
2937 2948 2954 2964 2974 2978 2986 2987 2997 3003 3007 3009 3005 3014 3015 3015 3019 3021 3020 3019 3021 3024 3023 3020 3016 3019 3020 3019 3020 3017 3018 3018 3017 3015 3013 3012 3009 3009 3006 3007 3006 3000 2999 2998 2997 2996 2994
2930 2939 2947 2955 2963 2971 2976 2983 2987 2991 2995 2997 3000 3006 3008 3006 3008 3008 3008 3011 3012 3014 3011 3012 3012 3012 3010 3013 3012 3011 3012 3012 3013 3010 3009 3009 3007 3007 2998 3002 2999 2992 2991 2988 2986 2985 2986
2923 2933 2942 2948 2957 2964 2969 2974 2978 2983 2985 2989 2993 2996 2998 2998 2999 3000 3001 3003 3003 3004 3005 3005 3005 3005 3004 3004 3007 3007 3006 3005 3004 3004 3004 3003 3002 3002 2995 2997 2993 2987 2988 2984 2981 2979 2978
2917 2927 2935 2943 2949 2956 2961 2967 2971 2972 2977 2981 2984 2988 2991 2990 2992 2992 2994 2996 2996 2996 2998 2997 2999 3000 3002 3002 3002 3002 3002 3001 3000 2999 2998 2997 2998 2995 2993 2991 2986 2985 2985 2982 2978 2978 2978
2910 2920 2931 2938 2943 2948 2953 2957 2959 2964 2970 2974 2977 2981 2981 2984 2983 2984 2986 2988 2989 2991 2994 2994 2995 2996 2998 2998 2999 3000 3000 2999 2997 2996 2995 2994 2993 2994 2991 2987 2983 2981 2981 2977 2973 2971 2972
2909 2916 2926 2934 2937 2943 2947 2951 2951 2957 2961 2966 2970 2972 2974 2975 2975 2978 2980 2983 2985 2989 2990 2993 2992 2993 2994 2994 2995 2997 2997 2997 2995 2993 2992 2989 2985 2984 2984 2983 2978 2975 2971 2972 2974 2974 2970
2901 2911 2921 2927 2933 2937 2941 2944 2948 2951 2955 2961 2964 2966 2969 2968 2970 2973 2977 2981 2984 2986 2987 2987 2989 2989 2991 2992 2992 2993 2992 2992 2992 2991 2991 2990 2987 2984 2983 2979 2976 2973 2971 2972 2971 2966 2964
2899 2910 2915 2922 2927 2932 2937 2940 2944 2948 2951 2953 2956 2959 2961 2963 2968 2969 2972 2977 2979 2982 2984 2982 2985 2986 2987 2987 2989 2988 2987 2988 2988 2986 2986 2987 2986 2985 2985 2978 2972 2970 2968 2966 2963 2960 2958